Weather History for KLAR - January, 2012

Change the Weather History Date:

Friday, January 27, 2012

  Actual Average Record
Temperature  
Mean Temperature 13 °F 22 °F  
Max Temperature 29 °F 33 °F 59 °F (2015)
Min Temperature -3 °F 10 °F -36 °F (1961)
Degree Days  
Heating Degree Days 52 43  
Month to date heating degree days 1044 1162  
Since 1 July heating degree days 4707 4835  
Cooling Degree Days 0 0  
Month to date cooling degree days 0 0  
Year to date cooling degree days 0 0  
Moisture  
Dew Point 13 °F    
Average Humidity 79    
Maximum Humidity 95    
Minimum Humidity 62    
Precipitation  
Precipitation T in 0.01 in 0.40 in (1980)
Month to date precipitation T 0.23  
Year to date precipitation T 0.23  
Sea Level Pressure  
Sea Level Pressure 30.08 in    
Wind  
Wind Speed 14 mph (NNW)    
Max Wind Speed 28 mph    
Max Gust Speed 35 mph    
Visibility 5 miles    
Events Fog , Snow    
T = Trace of Precipitation, MM = Missing Value Source: NWS Daily Summary

Daily Weather History Graph

Daily Weather History Graph

Search for Another Location

Airport or City:

Trip Planner

Search our weather history database for the weather conditions in past years. The results will help you decide how hot, cold, wet, or windy it might be!

Date:

Astronomy

Jan. 27, 2012 Rise Set
Actual Time 7:18 AM MST 5:12 PM MST
Civil Twilight 6:49 AM MST 5:41 PM MST
Nautical Twilight 6:15 AM MST 6:15 PM MST
Astronomical Twilight 5:43 AM MST 6:47 PM MST
Moon 9:11 AM MST (1/27) 10:09 PM MST (1/27)
Length of Visible Light 10h 52m
Length of Day
9h 53m
Waxing Crescent, 20% of the Moon is Illuminated
Jan 27
Waxing Crescent
Jan 30
First Quarter
Feb 7
Full
Feb 14
Last Quarter
Feb 21
New

Hourly Weather History & Observations

Time (MST) Temp. Windchill Dew Point Humidity Pressure Visibility Wind Dir Wind Speed Gust Speed Precip Events Conditions
12:53 AM 27.0 °F 14.7 °F 19.0 °F 72% 29.75 in 10.0 mi West 16.1 mph - N/A   Clear
1:53 AM 27.0 °F 14.7 °F 19.0 °F 72% 29.78 in 10.0 mi WNW 16.1 mph - N/A   Mostly Cloudy
2:53 AM 26.1 °F 13.1 °F 21.0 °F 81% 29.81 in 7.0 mi WNW 17.3 mph - 0.00 in Snow Light Snow
3:53 AM 25.0 °F 14.2 °F 21.0 °F 85% 29.85 in 10.0 mi West 11.5 mph - 0.00 in   Overcast
4:53 AM 23.0 °F 13.1 °F 17.1 °F 78% 29.89 in 10.0 mi NW 9.2 mph - N/A   Overcast
5:53 AM 23.0 °F 13.1 °F 18.0 °F 81% 29.92 in 10.0 mi NW 9.2 mph - N/A   Overcast
6:34 AM 21.2 °F 8.9 °F 19.4 °F 93% 29.93 in 1.8 mi NNW 12.7 mph - 0.00 in Snow Light Snow
6:42 AM 21.2 °F 8.3 °F 19.4 °F 93% 29.93 in 0.8 mi NNW 13.8 mph - 0.00 in Snow Light Snow
6:53 AM 21.9 °F 11.0 °F 19.9 °F 92% 29.98 in 1.0 mi NNW 10.4 mph - 0.00 in Snow Light Snow
7:11 AM 21.2 °F 7.8 °F 19.4 °F 93% 29.95 in 2.0 mi NNW 15.0 mph - 0.00 in Snow Light Snow
7:23 AM 21.2 °F 8.3 °F 19.4 °F 93% 29.95 in 3.0 mi NNW 13.8 mph - 0.00 in Snow Light Snow
7:29 AM 21.2 °F 8.3 °F 19.4 °F 93% 29.95 in 2.5 mi NNW 13.8 mph - 0.00 in Snow Light Snow
7:42 AM 21.2 °F 7.8 °F 19.4 °F 93% 29.96 in 0.8 mi NNW 15.0 mph - 0.00 in Snow Light Snow
7:51 AM 21.2 °F 8.3 °F 19.4 °F 93% 29.96 in 0.5 mi NNW 13.8 mph - 0.00 in Fog , Snow Snow
7:53 AM 21.0 °F 7.1 °F 19.0 °F 92% 30.02 in 0.5 mi NNW 16.1 mph - 0.00 in Fog , Snow Snow
8:02 AM 19.4 °F 3.6 °F 17.6 °F 93% 29.97 in 0.2 mi NNW 19.6 mph 25.3 mph 0.00 in Fog , Snow Snow
8:20 AM 19.4 °F 3.2 °F 15.8 °F 86% 29.98 in 0.8 mi NNW 20.7 mph 25.3 mph 0.00 in Snow Light Snow
8:32 AM 17.6 °F 2.7 °F 15.8 °F 93% 29.99 in 1.0 mi North 16.1 mph - 0.00 in Snow Light Snow
8:44 AM 17.6 °F 3.2 °F 15.8 °F 93% 30.00 in 1.2 mi North 15.0 mph - 0.00 in Snow Light Snow
8:53 AM 18.0 °F 3.6 °F 15.1 °F 88% 30.08 in 0.8 mi North 15.0 mph - 0.00 in Snow Light Snow
9:00 AM 17.6 °F 3.2 °F 15.8 °F 93% 30.01 in 0.5 mi North 15.0 mph - 0.00 in Fog , Snow Light Snow
9:06 AM 17.6 °F 3.7 °F 15.8 °F 93% 30.02 in 1.0 mi North 13.8 mph - 0.00 in Snow Light Snow
9:14 AM 17.6 °F 3.7 °F 15.8 °F 93% 30.02 in 0.8 mi North 13.8 mph - 0.00 in Snow Light Snow
9:38 AM 17.6 °F 4.3 °F 15.8 °F 93% 30.04 in 1.5 mi North 12.7 mph - 0.00 in Snow Light Snow
9:53 AM 18.0 °F 3.1 °F 15.1 °F 88% 30.12 in 1.2 mi NNW 16.1 mph - 0.00 in Snow Light Snow
10:03 AM 17.6 °F 3.2 °F 15.8 °F 93% 30.05 in 0.8 mi NNW 15.0 mph - 0.00 in Snow Light Snow
10:06 AM 17.6 °F 2.2 °F 15.8 °F 93% 30.05 in 1.0 mi North 17.3 mph 23.0 mph 0.00 in Snow Light Snow
10:15 AM 17.6 °F 1.7 °F 12.2 °F 79% 30.06 in 3.0 mi North 18.4 mph 25.3 mph 0.00 in Snow Light Snow
10:25 AM 17.6 °F 2.2 °F 12.2 °F 79% 30.07 in 2.5 mi North 17.3 mph 25.3 mph 0.00 in Snow Light Snow
10:33 AM 17.6 °F 1.7 °F 12.2 °F 79% 30.07 in 1.2 mi North 18.4 mph - N/A Snow Light Snow
10:53 AM 18.0 °F 3.1 °F 14.0 °F 84% 30.16 in 1.0 mi North 16.1 mph - 0.00 in Snow Light Snow
11:13 AM 17.6 °F 2.7 °F 12.2 °F 79% 30.07 in 3.0 mi NNW 16.1 mph - 0.00 in Snow Light Snow
11:20 AM 17.6 °F 2.2 °F 14.0 °F 86% 30.08 in 5.0 mi NNW 17.3 mph - 0.00 in Snow Light Snow
11:42 AM 21.2 °F 4.5 °F 14.0 °F 74% 30.07 in 10.0 mi NW 24.2 mph 29.9 mph 0.00 in   Overcast
11:53 AM 19.9 °F 2.5 °F 12.9 °F 74% 30.14 in 10.0 mi NW 25.3 mph 31.1 mph 0.00 in   Mostly Cloudy
12:53 PM 21.0 °F 3.9 °F 10.0 °F 63% 30.15 in 10.0 mi NNW 25.3 mph 32.2 mph N/A   Mostly Cloudy
1:53 PM 18.0 °F 1.7 °F 9.0 °F 68% 30.18 in 10.0 mi NNW 19.6 mph 28.8 mph N/A   Partly Cloudy
2:53 PM 17.1 °F 1.5 °F 10.0 °F 74% 30.21 in 8.0 mi North 17.3 mph - 0.00 in   Mostly Cloudy
3:22 PM 17.6 °F 3.7 °F 8.6 °F 68% 30.12 in 10.0 mi North 13.8 mph - 0.00 in   Scattered Clouds
3:53 PM 15.1 °F -0.1 °F 8.1 °F 74% 30.26 in 10.0 mi North 15.0 mph - 0.00 in   Clear
4:53 PM 10.9 °F -2.6 °F 5.0 °F 77% 30.31 in 10.0 mi NNW 10.4 mph - N/A   Clear
5:53 PM 7.0 °F -6.6 °F 3.0 °F 84% 30.38 in - NNW 9.2 mph - N/A   Partly Cloudy
6:53 PM 7.0 °F - 3.9 °F 87% 30.39 in 10.0 mi Calm Calm - N/A   Clear
7:53 PM 1.0 °F -8.7 °F -0.9 °F 91% 30.43 in 10.0 mi SSE 4.6 mph - N/A   Clear
8:53 PM -0.0 °F -15.3 °F -2.9 °F 88% 30.45 in 10.0 mi South 9.2 mph - N/A   Clear
9:53 PM 1.0 °F -14.0 °F -2.0 °F 87% 30.43 in 10.0 mi West 9.2 mph - N/A   Clear
10:53 PM 7.0 °F -5.7 °F -0.0 °F 73% 30.40 in 10.0 mi SW 8.1 mph - N/A   Clear
11:53 PM 10.9 °F -5.9 °F -0.0 °F 61% 30.33 in 10.0 mi WSW 16.1 mph - N/A   Clear